STARLINK-35385, 65906

Orbit data source: Space-Track

STARLINK-35385, 65906 is a payload satellite owned by SpaceX/Seattle (US) in LEO that was launched on Tue, 07 Oct 2025 UTC via an FALCON 9 launch vehicle from the Air Force Eastern Test Range (AFETR). Payload-class satellites include a variety of spacecraft equipped with specific instruments for various scientific and technological missions. These include communications satellites like Starlink; space stations such as the ISS; scientific satellites like the Hubble; Earth observation satellites from companies like Planet Labs, Umbra, and HawkEye 360; GPS; miniature CubeSats for education and research; and military/defense satellites.

Loading next visibility...
Identifier
65906, 2025-224AA
Orbit
LEO
Country
Flag of USUS
Related business
Manufacturer
SpaceX/Seattle
Mission
Operational spacecraft
Bus & Motor
STARLINK V2MO, Unknown motor
Mass
575 kg wet, ~530 kg dry
Launch date (UTC)
2025-10-07 (2 months ago)
Launch vehicle
FALCON 9
Launch site
Air Force Eastern Test Range (AFETR)
Object type
Payload
Rocket body
Debris
Shape & HBR
Unknown shape, 17.7 m
Radar Cross Section
RCS unknown

Expand to show TLE details & history
Last TLE update: 15 hours ago

TLE from 15 hours ago
0 STARLINK-35385
1 65906U 25224AA  25340.60273191  .00042604  00000-0  14406-2 0  9997
2 65906  53.1611  83.6247 0001367 150.0762 210.0318 15.30240246 10602
Epoch: 2025-12-06T14:27Z
TLE epoch observation values (Epoch: 2025-12-06T14:27:56.037Z)
Latitude
0.00007°
Longitude
151.01316°
Altitude
476.806 km
Speed
7.628 km/s
True Right ascension
05h 34m 29s
True Declination
0° 00' 00"
Sunlit
Object was in full shadow at epoch
Visualization orbit readout
Latitude
Unknown
Longitude
Unknown
Altitude
Unknown
Speed
Unknown
Apparent Right ascension
Unknown
Apparent Declination
Unknown
Sunlit
N/A
Visualization observer readout
Local Sidereal Time
03:13:02
Azimuth
Unknown
Elevation
Unknown
Doppler factor
Unknown
Orbital elements
Apogee altitude
476.288 km
Perigee altitude
474.414 km
Semi-major axis
6,853.488 km
Eccentricity
0.00014
Inclination
53.1611°
RAAN
83.6247°
Arg. of periapsis
150.0762°
True anomaly
210.02396°
Mean anomaly
210.0318°
Eccentric anomaly
210.02788°
Mean motion
3.82539 °/min
Orbital period
94.11 mins
BSTAR
0.0014406
Loading maneuver chart data...
Computing Atmospheric mass density...
Loading historical data...
Loading historical data...
Loading historical data...
Loading historical data...
Loading historical data...
Loading historical data...
Loading historical data...

Documentation

Showing up to 5 results
|